Location: Newark
(13.8117°N, 3.6025°W)
Time: 08:16:09
(UTC+00:00)

Explorer 11/Cluster Stage 4 - Pass Details

Date: 02 September 2019
Orbit: 467 x 1259 km, 28.8° (Epoch: 21 October)

Event Time Altitude Azimuth Distance (km) Brightness Sun altitude
Rises 11:21:36 0° 302° (WNW) 3,880 10.0 75.8°
Reaches altitude 10° 11:24:18 10° 306° (NW) 3,014 9.6 76.4°
Maximum altitude 11:31:50 55° 23° (NNE) 1,445 8.9 78.0°
Drops below altitude 10° 11:39:55 10° 99° (E) 3,226 10.0 79.7°
Sets 11:42:54 0° 104° (ESE) 4,169 10.4 80.3°
